Salisbury, MD

12:07 AM EST on December 11, 2016 (GMT -0500)
Salisbury-Ocean City Wicomico Regional

Weather History for KSBY - January, 2013

Change the Weather History Date:

Wednesday, January 2, 2013

  Actual Average Record
Temperature  
Mean Temperature 37 °F 36 °F  
Max Temperature 43 °F 45 °F 67 °F (1985)
Min Temperature 30 °F 27 °F 8 °F (1918)
Degree Days  
Heating Degree Days 28 29  
Month to date heating degree days 48 58  
Since 1 July heating degree days 1347 1682  
Cooling Degree Days 0 0  
Month to date cooling degree days 0 0  
Year to date cooling degree days 0 0  
Moisture  
Dew Point 21 °F    
Average Humidity 52    
Maximum Humidity 64    
Minimum Humidity 40    
Precipitation  
Precipitation T in 0.11 in 0.92 in (1972)
Month to date precipitation T 0.21  
Year to date precipitation T 0.21  
Snow  
Snow T in 0.00 in 1.00 in (1918)
Month to date snowfall T 0.1  
Since 1 July snowfall T 1.9  
Snow Depth 0.00 in    
Sea Level Pressure  
Sea Level Pressure 30.11 in    
Wind  
Wind Speed 6 mph (NNW)    
Max Wind Speed 15 mph    
Max Gust Speed 18 mph    
Visibility 10 miles    
Events Snow    
T = Trace of Precipitation, MM = Missing Value Source: NWS Daily Summary

Daily Weather History Graph

Daily Weather History Graph

Search for Another Location

Airport or City:

Trip Planner

Search our weather history database for the weather conditions in past years. The results will help you decide how hot, cold, wet, or windy it might be!

Date:

Astronomy

Jan. 02, 2013 Rise Set
Actual Time 7:19 AM EST 4:53 PM EST
Civil Twilight 6:49 AM EST 5:22 PM EST
Nautical Twilight 6:16 AM EST 5:55 PM EST
Astronomical Twilight 5:44 AM EST 6:28 PM EST
Moon 10:18 PM EST (1/2) 10:04 AM EST (1/2)
Length of Visible Light 10h 33m
Length of Day
9h 34m
Waning Gibbous, 75% of the Moon is Illuminated
Jan 2
Waning Gibbous
Jan 4
Last Quarter
Jan 11
New
Jan 18
First Quarter
Jan 26
Full

Hourly Weather History & Observations

Time (EST) Temp. Windchill Dew Point Humidity Pressure Visibility Wind Dir Wind Speed Gust Speed Precip Events Conditions
12:54 AM 42.1 °F 40.2 °F 28.0 °F 58% 30.00 in 10.0 mi North 3.5 mph - N/A   Overcast
1:54 AM 41.0 °F 37.1 °F 28.9 °F 62% 30.00 in 10.0 mi North 5.8 mph - N/A   Overcast
2:54 AM 39.0 °F 34.0 °F 28.9 °F 67% 30.03 in 10.0 mi North 6.9 mph - N/A   Overcast
3:54 AM 37.9 °F 34.4 °F 28.9 °F 70% 30.02 in 6.0 mi NNE 4.6 mph - 0.00 in Snow Light Snow
4:54 AM 37.0 °F 31.6 °F 26.1 °F 65% 30.01 in 6.0 mi North 6.9 mph - 0.00 in Snow Light Snow
5:54 AM 36.0 °F 33.3 °F 27.0 °F 70% 30.03 in 10.0 mi North 3.5 mph - 0.00 in   Overcast
6:54 AM 36.0 °F 31.1 °F 25.0 °F 64% 30.06 in 10.0 mi North 5.8 mph - N/A   Overcast
7:54 AM 36.0 °F 32.1 °F 24.1 °F 62% 30.08 in 10.0 mi NNW 4.6 mph - N/A   Overcast
8:54 AM 37.0 °F 31.6 °F 23.0 °F 57% 30.09 in 10.0 mi North 6.9 mph - N/A   Mostly Cloudy
9:54 AM 37.9 °F 33.5 °F 21.0 °F 51% 30.13 in 10.0 mi North 5.8 mph - N/A   Partly Cloudy
10:54 AM 39.0 °F 32.3 °F 19.9 °F 46% 30.13 in 10.0 mi NW 10.4 mph - N/A   Clear
11:54 AM 39.0 °F 32.8 °F 19.0 °F 45% 30.10 in 10.0 mi NNW 9.2 mph - N/A   Clear
12:54 PM 39.9 °F 32.5 °F 18.0 °F 41% 30.09 in 10.0 mi NW 12.7 mph - N/A   Clear
1:54 PM 39.0 °F 31.8 °F 17.1 °F 41% 30.08 in 10.0 mi NNW 11.5 mph - N/A   Clear
2:54 PM 39.0 °F 31.4 °F 17.1 °F 41% 30.11 in 10.0 mi NW 12.7 mph - N/A   Clear
3:54 PM 37.9 °F 32.7 °F 18.0 °F 45% 30.12 in 10.0 mi NW 6.9 mph - N/A   Clear
4:54 PM 36.0 °F 29.6 °F 16.0 °F 44% 30.15 in 10.0 mi NW 8.1 mph - N/A   Clear
5:54 PM 33.1 °F - 18.0 °F 54% 30.18 in 10.0 mi Calm Calm - N/A   Clear
6:54 PM 30.9 °F - 19.0 °F 61% 30.20 in 10.0 mi Calm Calm - N/A   Clear
7:54 PM 32.0 °F - 17.1 °F 54% 30.20 in 10.0 mi Calm Calm - N/A   Clear
8:54 PM 32.0 °F 28.7 °F 18.0 °F 56% 30.19 in 10.0 mi North 3.5 mph - N/A   Clear
9:54 PM 32.0 °F 28.7 °F 18.0 °F 56% 30.22 in 10.0 mi NW 3.5 mph - N/A   Clear
10:54 PM 30.9 °F - 18.0 °F 59% 30.23 in 10.0 mi Calm Calm - N/A   Clear
11:54 PM 30.9 °F 26.2 °F 17.1 °F 57% 30.23 in 10.0 mi North 4.6 mph - N/A   Clear